RH
87 89 92 94 95 96 96 96 94 93 94 96 95 92 89 89 85 81 78 77 75 72 70 68 67 67 66 64 65 64 65 65 64 63 61 60 60 60 59 59 58 58 59 63 65 62 64 70 74 74 72 71 69 67 67 69 71 72 70 67 67 71 75 80 86 86 80 78 82 84 84 85 85 82 80 79 79 78 79 82 84 83 82 82 82
87 89 93 96 96 95 94 94 94 94 93 94 93 88 85 87 87 87 84 79 75 72 68 66 64 65 64 64 66 65 63 63 63 63 63 62 62 60 59 58 57 56 57 59 61 60 62 69 74 74 74 74 73 71 70 71 72 73 71 70 70 70 75 80 83 84 82 81 84 87 87 87 85 83 82 81 79 78 79 80 81 83 82 80 83
88 89 91 94 96 96 95 95 95 95 95 93 93 89 84 82 82 84 86 82 77 72 69 66 64 63 63 64 67 67 64 62 61 61 62 62 62 61 58 56 54 54 55 56 58 58 60 65 70 73 74 76 75 73 72 72 74 75 72 71 72 73 76 80 81 83 85 87 89 88 89 89 90 89 88 85 82 80 81 83 84 85 84 83 86
90 92 92 94 98 98 97 97 95 95 96 94 93 91 88 85 81 80 80 81 80 75 71 69 68 67 66 66 67 67 65 64 62 62 62 61 60 59 57 55 53 53 53 55 56 58 59 61 67 71 74 77 76 74 75 75 74 75 74 73 75 77 79 80 81 84 89 93 94 91 90 91 92 92 89 87 85 85 89 93 93 92 91 91 92
85 89 92 95 99 99 98 98 96 94 94 93 92 90 88 85 84 83 82 81 81 78 75 73 72 72 70 67 66 65 64 64 63 62 61 60 59 57 55 53 53 53 53 54 56 57 58 59 63 69 74 76 76 75 76 76 75 74 75 77 80 82 82 80 82 88 94 97 96 94 92 91 90 89 87 87 87 91 97 100 99 99 97 96 96
85 88 92 95 96 98 98 98 99 97 96 95 93 90 88 85 83 84 84 83 81 79 77 75 73 72 70 67 65 64 64 63 62 61 60 58 57 56 54 52 52 53 53 54 55 56 56 57 60 68 73 74 75 75 75 75 74 74 77 81 85 86 83 83 88 94 97 96 96 95 94 92 90 88 88 89 89 93 100 101 99 99 98 97 99
89 91 95 96 96 97 98 98 99 99 98 98 95 91 88 85 83 82 82 82 80 77 76 75 73 72 70 69 66 64 63 62 62 60 58 57 56 55 55 53 52 52 53 53 54 54 55 55 58 65 70 70 73 75 75 74 75 77 81 86 89 87 84 88 96 99 98 96 96 97 96 95 92 90 90 90 90 94 99 101 100 99 98 100 100
90 93 95 98 98 99 99 99 100 99 98 98 95 93 91 89 87 84 82 82 80 77 74 72 70 69 69 69 68 65 63 61 60 58 56 55 55 54 54 54 53 53 52 51 51 52 53 54 57 64 68 70 72 75 75 74 76 81 86 90 91 88 87 91 97 99 98 97 97 96 95 94 92 91 89 88 92 98 100 99 100 100 100 100 100
89 92 96 99 100 100 100 100 100 100 99 99 97 96 95 95 93 89 84 81 80 79 77 73 70 68 67 66 66 66 65 63 60 58 56 54 54 54 53 52 52 52 51 50 50 51 51 52 57 63 67 69 72 76 77 76 76 80 86 92 93 93 94 96 98 98 97 97 97 97 97 97 95 92 90 89 92 98 99 98 100 100 100 100 100
92 94 97 100 100 100 101 100 100 100 100 100 100 98 97 95 95 94 90 85 81 80 79 76 73 71 69 68 65 64 63 62 61 59 57 56 54 54 54 52 51 50 50 51 50 50 51 52 57 64 67 70 74 76 76 77 79 83 89 93 94 96 97 98 99 100 98 97 98 98 99 98 93 92 94 92 90 91 92 95 99 101 100 100 100
95 94 95 95 95 95 98 99 100 100 100 100 100 99 97 96 95 94 94 92 88 86 83 80 75 72 71 71 68 67 65 61 59 58 58 57 56 55 55 53 51 50 51 52 51 50 51 52 58 65 68 72 76 78 81 85 88 92 95 96 95 96 97 97 98 98 97 97 96 96 99 98 93 93 97 95 94 95 95 96 99 101 99 99 100
93 91 91 90 89 88 89 91 93 95 98 100 100 100 99 98 98 96 95 93 92 91 89 86 82 77 74 72 69 69 68 66 62 59 56 56 56 56 55 54 53 52 51 52 51 51 52 54 59 65 68 73 77 83 92 96 96 97 98 98 98 98 97 98 99 99 98 98 97 96 99 99 96 97 100 98 98 100 99 99 100 100 99 99 99
92 90 89 89 89 87 86 86 86 87 91 93 95 98 99 100 100 100 99 97 95 95 93 91 88 84 80 76 72 70 69 69 67 64 60 57 55 55 56 56 55 54 52 52 52 52 53 57 61 62 66 74 79 87 96 98 96 99 100 99 99 98 96 97 97 95 95 97 97 97 96 97 96 96 97 97 96 98 99 99 100 100 98 98 98
89 89 89 91 93 92 90 89 88 87 88 88 89 92 93 96 99 99 100 100 99 99 98 96 94 90 86 83 80 76 73 71 70 68 65 62 58 57 58 59 58 57 55 53 53 53 55 59 62 60 64 74 80 87 97 99 97 100 100 99 99 96 92 91 89 86 87 91 94 95 94 93 91 91 91 91 92 97 99 99 99 99 98 98 98
89 90 92 94 93 92 92 91 89 88 88 89 90 90 90 93 95 96 98 99 100 100 99 99 99 97 95 92 89 85 81 77 75 72 69 65 62 61 61 62 63 63 61 57 55 55 56 59 62 61 66 76 80 86 97 100 99 100 100 99 98 93 88 86 84 83 84 86 89 89 88 87 85 87 90 91 92 95 97 96 96 97 98 99 97
92 95 96 95 92 91 92 92 91 91 89 89 91 91 92 93 94 95 96 96 98 99 99 99 99 100 100 98 96 92 87 84 80 76 72 69 66 64 64 65 65 66 65 63 60 58 58 60 64 67 72 79 83 89 98 100 99 100 100 97 92 87 84 83 82 80 79 79 81 82 83 86 89 93 95 93 91 91 93 96 96 95 97 99 98
97 98 95 92 91 92 94 95 97 97 96 95 95 94 95 96 95 94 94 93 93 96 98 98 98 99 99 99 99 97 92 89 86 81 78 74 71 69 67 68 68 67 65 63 62 63 62 61 63 68 75 82 87 94 100 100 100 100 97 92 86 84 84 83 81 80 78 79 81 84 89 93 97 100 98 93 90 88 90 95 95 93 94 96 99
97 94 90 90 91 90 92 97 99 100 100 100 99 99 99 97 96 96 96 94 91 91 95 97 97 98 98 98 99 97 94 91 88 85 82 80 78 76 72 71 73 72 70 69 72 75 74 73 74 74 74 78 87 96 100 99 100 100 94 87 84 83 85 85 84 84 84 87 92 95 98 100 100 99 95 91 89 87 87 90 91 91 92 94 97
88 86 88 92 92 90 93 98 100 100 100 100 100 100 100 98 97 98 98 98 96 94 96 99 99 99 99 99 99 98 96 94 91 89 88 86 85 84 79 77 76 77 79 80 80 77 74 77 84 85 83 80 82 92 100 100 100 98 91 85 82 83 85 84 83 84 88 93 99 100 100 100 99 95 91 89 88 86 84 85 85 85 89 94 94
82 83 87 92 94 95 96 98 99 100 100 100 100 100 100 100 99 99 99 99 100 99 99 100 100 100 100 99 99 99 100 99 98 97 95 93 92 92 88 83 78 76 79 82 83 81 80 83 85 89 94 91 84 88 99 101 99 94 87 83 81 81 83 80 77 80 85 91 96 96 94 93 91 89 87 86 85 82 81 81 81 82 87 91 89
85 83 86 91 95 97 97 97 99 100 100 100 100 99 100 100 100 100 100 100 100 100 100 100 100 100 100 100 100 100 100 100 100 100 99 97 95 94 89 83 79 75 76 85 91 90 90 92 90 91 97 98 92 93 99 102 98 90 84 82 81 79 78 74 70 73 79 82 84 83 81 79 77 76 76 76 76 75 75 75 76 78 82 84 84
87 84 86 92 95 97 98 98 99 100 100 99 99 98 99 100 100 100 100 100 100 100 100 100 100 100 100 100 100 100 100 100 100 100 100 98 96 94 90 88 87 83 80 86 89 87 88 95 97 98 99 100 99 99 100 101 98 90 84 82 79 76 71 66 64 69 74 76 74 72 68 64 63 64 64 65 66 66 67 68 68 69 71 72 75
86 86 89 94 98 99 99 99 99 100 100 99 99 99 99 100 100 100 100 100 100 100 100 100 100 100 100 100 100 100 100 99 98 96 95 95 95 95 95 96 97 94 90 89 89 90 96 100 100 100 99 99 100 101 100 100 96 90 85 79 74 70 66 63 64 68 72 72 70 67 64 58 56 57 58 59 60 59 59 60 61 60 61 62 63
88 89 92 97 100 100 100 100 100 100 99 99 99 100 100 99 99 100 100 99 99 99 100 100 100 100 100 100 100 100 100 99 99 97 95 95 95 95 96 98 100 99 98 97 96 97 100 100 99 100 99 98 98 97 99 100 94 85 80 76 71 68 65 64 64 64 68 71 72 71 66 59 55 55 53 53 54 52 53 55 55 55 55 56 56
91 93 96 99 100 100 100 100 100 100 99 99 100 100 99 100 99 99 99 98 98 100 100 100 100 100 100 100 100 100 100 99 100 100 99 99 100 99 99 100 101 100 100 100 100 101 101 100 100 101 99 96 87 80 85 95 96 88 81 76 71 65 62 62 62 64 71 76 76 73 65 56 51 48 46 46 45 43 45 48 50 52 52 53 55
94 97 99 100 100 100 101 100 100 101 100 100 100 100 100 100 99 99 99 99 99 100 100 100 100 100 100 100 100 100 100 99 99 99 98 97 97 97 97 98 98 99 98 97 97 96 94 92 91 90 88 86 79 70 70 78 85 90 92 88 80 70 63 62 65 72 78 78 75 70 62 52 48 45 42 42 41 40 41 42 44 48 48 49 53
97 100 100 100 100 100 100 100 100 100 100 100 100 100 100 100 99 100 100 100 100 100 100 100 100 100 100 100 100 100 100 100 100 98 96 96 96 96 96 95 95 94 92 90 88 86 83 81 78 74 72 71 70 67 64 61 63 73 84 88 87 81 73 68 69 76 80 77 72 68 61 53 49 45 44 44 42 42 43 42 43 48 49 49 55
98 100 100 100 100 100 100 100 100 100 100 100 100 100 100 100 100 100 100 100 100 100 100 100 100 100 100 100 99 100 100 100 100 100 99 98 98 97 96 96 95 93 91 90 88 84 80 75 69 67 65 62 60 60 60 56 53 56 63 70 76 78 73 70 70 74 78 77 72 67 62 56 51 48 48 48 45 44 45 42 41 46 50 52 58
98 99 100 100 100 100 100 100 100 100 100 100 100 100 100 100 100 100 100 99 98 96 97 99 99 99 100 99 98 99 100 100 100 99 97 95 94 95 94 94 94 92 90 88 85 83 81 77 74 74 73 71 71 69 64 57 52 51 53 58 65 71 71 68 68 70 75 77 74 68 62 58 55 53 51 49 46 45 44 42 42 46 52 57 61
98 99 100 100 100 100 100 100 100 100 100 100 100 100 100 98 98 98 98 96 94 91 92 95 94 92 94 95 95 96 98 97 94 90 89 88 87 88 88 86 85 84 81 76 75 79 82 84 86 85 83 83 87 87 81 73 68 66 65 63 66 70 69 67 65 65 68 73 75 71 64 60 58 55 51 48 47 45 44 43 44 49 56 61 64
99 100 100 100 100 100 100 100 101 100 99 99 98 97 97 96 94 94 92 90 89 88 88 89 89 88 89 92 93 92 89 85 82 79 79 78 78 78 79 78 77 77 73 69 73 81 85 86 90 91 89 89 90 89 87 84 81 80 77 73 70 68 65 63 61 58 58 62 65 65 62 59 57 53 49 47 46 45 45 44 45 50 57 61 65
97 99 100 100 100 100 100 99 98 95 93 93 93 93 92 91 90 90 89 86 84 84 84 85 86 86 85 85 85 83 81 77 75 74 73 73 73 72 72 73 74 73 69 68 74 83 85 85 87 88 88 88 88 85 84 83 81 80 79 77 73 66 60 57 55 52 52 53 54 55 56 57 55 52 49 48 46 46 46 45 44 48 54 57 59
95 96 98 99 98 97 96 93 89 86 83 83 84 85 85 86 86 87 87 86 84 82 81 81 81 80 78 75 73 73 73 72 70 71 71 71 70 69 68 68 67 65 63 66 73 79 78 78 80 80 79 80 80 78 78 78 76 75 74 72 68 61 54 52 50 50 50 49 49 51 53 55 54 52 50 49 48 47 47 46 45 46 48 49 51
94 93 93 94 93 92 90 85 81 79 76 76 77 78 79 80 80 79 80 82 83 82 81 79 77 75 74 72 66 64 66 66 65 65 64 63 63 63 63 64 63 61 63 67 71 73 72 73 74 72 71 71 69 69 69 68 66 65 65 65 62 57 52 51 50 49 49 49 49 51 53 54 54 52 51 51 50 49 48 47 45 44 45 47 48
94 91 89 88 88 87 84 80 77 76 75 75 77 78 79 78 75 74 73 74 77 81 80 77 75 76 77 75 68 63 64 65 64 61 58 56 53 49 50 56 60 61 63 65 66 66 66 67 67 65 63 61 60 60 60 59 58 59 60 60 59 55 53 52 50 49 49 49 49 51 52 55 56 54 52 52 51 50 50 48 46 45 45 45 47
97 92 86 84 85 85 82 77 76 76 76 78 79 79 79 78 75 75 74 72 73 76 76 76 77 78 78 76 70 65 63 64 64 62 59 55 46 39 44 55 61 61 62 61 60 60 60 60 59 57 56 55 54 54 54 54 54 55 56 57 57 55 53 52 51 50 50 49 49 50 51 52 55 55 53 53 51 51 51 49 48 48 47 45 47
94 86 81 81 83 83 80 77 76 76 76 78 77 76 76 76 75 75 75 75 76 76 76 77 78 77 75 73 69 66 63 63 63 61 59 55 47 42 47 56 58 58 60 58 56 56 56 56 55 55 55 55 54 53 53 53 53 54 54 54 54 53 53 52 51 51 50 50 50 50 50 50 52 52 52 53 52 51 50 49 48 48 48 47 47
81 74 74 77 80 82 80 77 76 76 76 76 75 74 74 74 72 70 70 72 73 74 74 74 72 70 70 69 67 66 64 62 61 58 53 51 49 49 52 54 54 55 57 56 54 55 56 55 55 55 54 55 55 54 54 53 52 52 53 53 53 52 52 52 52 51 51 51 50 51 51 51 51 50 50 51 51 50 49 49 47 47 47 47 47
73 68 70 73 77 80 80 77 76 76 75 74 73 73 74 73 70 67 67 66 68 68 68 67 66 65 67 67 65 64 63 60 59 55 50 47 46 46 47 49 50 51 53 53 52 52 51 50 49 48 47 47 49 51 53 53 53 53 52 52 52 52 51 52 52 51 51 52 52 51 51 50 50 50 50 49 50 49 49 49 48 47 47 48 48
70 68 71 73 75 78 79 78 76 74 74 73 73 73 74 73 70 69 67 64 65 66 64 63 64 65 65 64 62 60 59 58 57 54 49 46 44 43 42 43 44 46 47 48 49 49 47 46 45 44 44 44 45 46 48 50 52 54 53 52 52 52 51 51 52 51 51 52 51 50 50 50 49 50 50 50 49 49 48 48 48 48 47 48 48
69 68 74 75 75 77 77 77 76 74 72 71 70 71 73 73 71 71 69 66 66 65 62 62 64 65 63 62 60 57 55 56 56 53 49 46 45 44 45 46 45 45 47 47 48 49 49 48 48 47 46 47 47 46 47 47 47 49 52 53 54 53 51 50 50 50 51 51 51 50 50 50 50 50 50 50 49 48 48 49 49 48 48 48 48
69 67 73 78 77 75 73 73 75 74 71 70 69 68 70 71 71 70 69 69 68 66 63 62 64 64 62 61 59 55 53 54 54 52 48 47 48 48 48 49 48 48 48 48 48 49 49 49 49 49 48 49 49 49 49 48 47 47 48 50 52 53 52 51 50 49 49 50 51 51 51 51 50 50 49 49 50 49 50 50 49 47 48 49 48
72 65 68 75 77 73 68 68 71 72 69 69 68 66 67 69 69 69 68 67 67 67 65 64 64 64 62 58 56 54 53 52 52 51 50 50 51 51 50 50 50 50 50 49 49 49 49 49 50 50 50 50 51 51 51 51 51 50 49 48 49 52 53 52 50 49 49 50 50 51 51 50 50 49 50 50 50 50 50 51 50 49 49 49 49
75 70 69 73 77 77 72 68 66 66 65 67 68 67 66 65 66 67 67 66 65 66 66 64 64 66 66 60 54 52 52 51 51 51 51 52 52 51 50 51 51 50 50 51 51 50 50 51 51 51 51 51 51 52 53 53 53 53 53 51 50 50 52 52 50 48 48 49 49 51 51 50 49 49 50 51 51 51 52 52 51 50 51 51 50
73 74 74 74 77 80 80 75 69 66 66 67 67 67 66 64 63 64 64 63 62 63 65 65 66 69 71 66 57 51 50 51 51 51 52 52 52 51 51 50 50 50 50 51 52 52 52 52 52 52 52 52 52 53 54 55 56 56 56 55 52 50 51 53 51 49 48 48 49 50 50 50 50 51 51 51 52 52 52 51 50 50 51 52 52
68 71 74 74 75 77 81 81 77 74 72 72 70 67 65 63 62 61 61 60 60 60 62 64 66 68 70 70 65 56 51 50 51 52 53 53 53 53 52 51 51 52 52 52 54 54 54 53 52 52 52 52 53 54 55 56 58 58 56 53 51 50 50 52 52 51 49 48 48 49 50 50 50 51 52 52 52 52 51 50 50 50 50 51 52
62 66 70 72 72 73 76 79 80 78 76 75 73 71 69 67 64 60 58 57 58 58 59 62 65 66 66 68 68 63 57 53 51 52 54 54 54 54 54 54 54 55 55 54 54 54 54 54 53 52 53 54 55 56 57 59 59 54 46 41 40 42 46 51 53 52 50 49 48 48 49 50 50 51 52 52 52 52 51 50 51 51 50 50 52
61 64 67 67 65 66 69 73 77 79 77 75 73 72 72 71 70 66 61 56 54 56 58 59 62 63 64 65 66 67 64 60 56 54 54 55 56 56 55 56 57 57 56 54 54 54 55 54 53 54 55 56 57 58 60 59 52 42 32 28 27 31 39 49 53 51 49 49 49 48 48 49 49 51 52 53 53 53 52 52 53 53 51 51 52
61 64 66 63 60 59 59 60 64 67 68 69 72 72 71 70 69 68 67 64 59 56 56 57 59 60 61 61 63 65 65 64 62 59 56 56 57 56 56 56 57 57 57 55 54 55 55 55 55 56 57 58 59 61 59 52 43 33 26 21 20 27 39 50 54 51 50 50 50 49 49 49 50 51 53 53 54 54 54 54 55 54 51 51 53
58 60 61 59 56 53 50 49 51 55 58 64 71 74 73 70 66 64 64 66 64 59 55 53 54 56 58 59 60 62 63 63 63 63 61 59 57 56 57 57 56 57 57 56 55 56 56 56 57 59 59 59 62 62 56 46 41 39 33 24 20 28 44 53 53 51 51 51 50 50 50 50 50 52 53 54 54 54 54 54 56 55 53 52 53
55 56 57 55 52 50 48 47 49 54 58 62 69 73 73 71 68 65 63 63 62 58 54 50 48 49 51 54 57 59 60 60 60 61 63 63 61 58 57 56 56 57 58 58 57 57 57 57 59 60 59 61 63 61 52 44 43 45 43 33 25 32 47 55 53 50 51 51 50 49 50 50 50 52 53 54 54 55 54 54 55 55 54 53 54
Wind_Speed
11 13 14 15 15 17 18 18 18 18 17 17 18 17 16 17 18 19 20 21 20 19 19 19 19 19 19 20 21 21 21 21 20 21 22 22 21 21 21 20 21 21 20 19 18 17 16 16 15 14 13 13 13 14 14 13 12 11 9 7 6 6 6 7 6 5 7 6 6 7 7 7 7 6 5 4 4 3 3 4 5 6 7 9 9
9 11 13 14 15 16 17 17 17 17 17 17 18 17 16 16 16 18 19 20 20 21 21 21 20 20 20 21 21 20 20 20 20 21 22 22 22 22 21 22 22 22 21 20 19 18 18 17 16 15 14 15 15 14 13 13 13 12 9 7 6 6 5 6 5 4 5 6 6 6 7 7 7 7 6 5 5 5 4 4 5 6 7 8 8
8 10 12 13 14 14 14 16 17 17 18 18 19 19 18 17 16 17 18 19 19 20 20 21 21 21 21 21 20 20 20 20 20 21 22 23 23 23 22 22 22 22 22 22 21 20 19 19 17 16 15 16 16 15 13 13 13 11 10 9 8 7 6 6 6 5 4 4 4 5 7 7 7 6 6 6 6 6 6 6 6 7 7 7 7
8 10 12 12 12 12 13 15 16 18 19 19 19 19 19 19 18 18 17 17 19 19 18 19 20 21 22 22 22 21 20 20 21 22 23 24 24 25 24 23 22 22 22 22 22 21 20 20 18 17 16 17 16 15 14 13 13 12 11 10 9 8 8 8 9 7 5 4 4 5 7 7 7 7 7 7 6 6 6 6 6 6 6 6 5
6 8 10 11 11 11 12 13 14 16 18 19 20 19 18 17 17 18 17 17 18 19 19 19 20 22 23 24 24 23 22 21 22 23 24 24 25 25 25 24 23 22 22 22 22 22 21 20 19 17 17 16 15 14 13 13 14 13 11 9 8 9 9 9 9 8 8 7 7 7 8 8 8 8 8 7 6 5 4 4 4 4 5 4 2
5 6 7 8 10 11 12 12 13 14 15 16 17 18 18 17 17 17 17 17 18 20 20 20 21 22 23 24 25 25 25 24 24 24 24 25 25 25 24 25 25 23 23 22 23 23 22 21 19 18 17 17 16 14 13 13 13 13 11 9 8 8 8 8 7 8 8 8 7 8 9 11 10 9 8 8 8 5 3 3 3 3 3 1 2
5 5 6 7 8 9 10 11 11 12 14 15 16 16 17 18 18 18 18 17 17 19 20 21 20 21 22 23 24 25 26 26 26 26 25 26 26 25 25 26 26 25 24 23 24 24 23 22 20 19 18 17 16 15 14 13 13 13 11 9 9 8 7 7 7 7 7 6 6 8 9 9 9 8 8 9 8 5 3 3 2 1 2 3 4
6 6 6 7 7 8 9 9 10 10 11 13 15 15 15 15 17 17 18 18 17 17 17 18 19 20 21 22 24 25 26 27 27 27 27 26 26 26 26 26 26 26 25 24 24 24 24 23 21 21 19 18 16 15 14 13 13 13 12 10 9 8 8 7 7 6 6 6 7 8 9 8 8 8 8 8 6 4 2 3 1 3 5 5 5
8 7 7 6 6 8 8 8 8 8 9 10 12 14 14 15 15 16 17 18 20 19 18 17 17 18 20 22 23 25 26 28 28 28 28 28 28 28 28 27 26 26 25 24 24 24 23 22 21 21 19 18 16 15 14 13 13 14 13 12 11 9 8 8 7 7 7 8 9 9 9 8 8 9 9 7 5 3 3 3 1 4 7 8 8
7 7 7 6 6 7 7 7 7 7 8 10 11 13 15 16 16 16 16 17 20 21 21 21 19 17 17 19 21 23 26 27 28 29 29 29 29 28 28 28 28 26 26 25 25 24 23 22 22 21 19 18 16 15 14 13 13 13 13 12 11 10 9 8 8 8 8 9 9 9 8 8 9 10 10 8 6 5 5 4 2 6 8 10 12
5 6 7 8 8 9 8 8 8 8 8 10 11 13 15 16 17 17 17 18 19 19 20 22 23 21 19 18 18 20 22 25 27 28 29 29 29 29 28 29 29 28 28 26 26 26 25 24 23 22 20 18 16 14 13 11 11 12 11 10 9 9 9 9 10 10 9 9 9 8 8 8 10 11 9 7 6 5 4 3 3 6 7 9 10
5 6 7 8 10 11 11 11 11 10 9 10 10 11 12 13 14 16 17 18 19 19 19 20 21 22 22 21 20 19 19 21 23 26 28 28 29 29 29 29 30 30 29 29 28 28 26 25 24 23 22 19 16 14 12 11 10 10 9 9 8 8 9 9 9 9 9 9 9 9 9 8 8 8 6 6 6 5 4 3 5 8 6 8 10
5 6 7 8 10 11 13 14 14 14 13 12 12 11 11 11 12 13 15 16 17 17 18 18 19 20 21 22 23 23 21 19 19 21 24 26 27 29 30 30 31 31 31 31 30 29 28 27 25 24 24 20 16 16 16 13 10 9 10 10 9 9 9 9 8 8 7 8 8 9 9 8 8 6 4 5 6 6 5 3 5 9 9 13 16
7 8 8 8 9 10 12 14 15 16 15 15 15 14 13 13 12 12 13 14 15 16 17 17 18 18 19 20 21 22 23 21 19 19 20 22 24 26 28 30 32 33 33 32 31 30 29 28 27 27 25 21 19 19 19 16 14 14 13 12 10 9 7 6 6 5 5 5 5 6 6 6 6 4 4 5 5 5 3 3 9 12 15 19 20
8 8 8 7 8 10 12 13 14 16 17 17 17 16 15 15 15 14 14 14 14 15 16 17 17 17 17 18 19 20 21 21 20 19 18 19 21 22 25 27 29 31 33 33 32 31 30 30 30 29 26 23 22 22 22 20 19 18 15 11 9 8 5 4 3 2 2 3 3 4 4 3 3 2 1 1 2 2 5 12 17 20 23 22 21
7 7 7 8 9 10 11 12 13 14 16 17 17 16 16 16 16 16 16 15 15 15 15 17 17 17 16 17 17 19 20 20 21 21 19 18 18 19 22 24 26 29 31 32 32 32 32 31 30 30 27 24 24 24 24 22 21 20 16 13 12 10 8 6 5 3 2 2 2 3 3 2 2 4 4 4 7 11 18 22 23 25 26 21 17
4 5 7 9 10 11 11 11 11 12 13 14 15 16 15 16 16 16 16 17 17 16 15 17 18 18 18 17 16 17 18 19 20 21 20 19 19 18 18 20 23 27 30 32 33 34 34 33 32 31 28 26 26 26 25 24 24 23 19 17 15 13 12 10 7 5 4 4 5 6 6 6 7 9 9 10 14 18 21 22 21 24 25 18 12
4 5 8 9 9 10 11 11 10 10 11 12 13 15 16 15 15 14 14 16 18 18 16 16 17 18 18 17 17 17 18 19 19 20 20 20 19 17 16 16 19 25 29 30 30 30 30 31 31 31 30 29 28 28 27 26 27 26 24 22 19 16 14 13 11 9 8 9 10 10 10 10 11 12 14 16 18 17 18 19 19 21 22 17 14
6 8 8 8 8 9 10 10 9 9 9 10 12 13 15 16 15 14 14 14 16 16 15 14 15 15 15 16 17 17 18 18 18 19 19 18 17 17 14 12 15 22 26 28 29 30 31 31 29 29 30 30 30 31 31 31 30 29 26 24 21 19 17 15 14 14 14 14 14 14 14 14 14 15 15 16 15 13 14 17 17 19 21 19 19
6 8 7 7 8 8 9 10 10 9 9 10 11 11 12 14 15 15 15 14 13 14 14 13 14 13 13 15 15 15 15 15 15 16 16 16 15 14 13 14 17 20 24 28 30 30 31 32 32 31 31 32 33 34 34 33 32 30 29 26 23 22 21 19 18 18 18 19 19 19 19 18 17 16 14 13 12 11 12 14 14 17 22 22 19
5 6 6 6 6 7 7 9 10 9 9 10 10 10 10 11 11 12 14 15 14 13 12 12 12 12 12 11 11 11 12 13 14 14 14 14 14 13 15 22 25 24 24 26 26 26 29 32 32 32 32 32 33 33 34 34 32 30 28 26 26 26 25 24 23 22 23 25 24 24 24 23 22 21 19 18 18 16 15 15 15 16 20 21 19
4 6 6 6 5 6 7 7 8 8 8 9 9 9 9 8 7 7 8 9 10 10 9 8 8 8 6 6 6 7 9 11 13 14 14 14 14 14 17 23 25 24 23 25 26 28 31 30 26 26 28 30 31 33 35 34 33 32 29 27 28 30 29 28 27 26 26 27 27 28 28 27 27 26 25 25 23 22 21 20 19 19 19 18 18
3 5 5 5 5 5 5 5 6 7 8 8 8 8 9 8 6 5 3 1 3 4 4 5 5 4 2 3 3 5 7 9 12 14 15 16 16 16 16 16 19 21 23 25 26 26 25 23 19 19 23 29 32 35 38 37 34 33 34 34 35 34 34 33 31 29 27 27 28 28 27 28 29 28 27 27 25 24 24 22 21 20 20 19 18
2 3 4 5 5 4 4 5 6 7 7 8 8 9 10 9 8 8 7 7 9 9 9 8 8 8 9 9 9 9 8 9 10 11 13 14 14 13 12 12 15 19 20 19 18 16 13 12 13 14 20 28 27 22 28 39 43 42 41 42 41 40 38 36 32 29 28 27 27 26 25 26 28 28 27 26 25 24 24 22 21 20 20 19 18
1 3 4 5 5 5 5 5 6 7 8 9 11 11 11 11 11 11 11 11 12 12 12 12 12 13 13 13 14 14 12 11 10 10 9 9 8 7 6 6 9 11 10 5 4 5 6 7 5 7 15 25 24 14 7 14 31 42 45 46 46 44 40 35 30 28 28 26 25 25 25 26 27 26 25 24 24 23 23 22 21 19 18 19 18
4 5 5 6 6 7 7 7 7 8 8 10 11 12 11 11 12 12 12 13 13 13 13 14 14 15 15 15 15 16 16 15 15 14 14 13 12 10 7 4 5 7 9 14 16 16 19 22 24 24 23 23 29 33 30 25 24 25 26 29 34 39 39 36 31 29 28 27 26 26 26 26 26 25 24 23 23 23 21 21 20 19 17 17 19
6 6 7 7 8 8 9 9 9 8 8 9 10 12 12 12 12 13 12 12 12 13 14 15 15 16 16 15 16 17 18 18 18 17 16 17 17 17 18 18 18 19 22 26 28 28 29 31 33 35 34 32 35 40 39 33 30 31 27 22 22 27 33 34 31 29 28 27 27 27 26 25 24 23 23 22 22 21 19 18 18 18 17 18 20
7 8 8 8 9 10 10 10 10 11 11 10 11 12 13 13 13 13 12 11 12 13 13 14 14 14 15 16 18 20 20 19 18 17 17 19 20 22 24 26 27 29 31 32 33 34 36 37 37 37 37 37 38 40 41 39 36 31 25 20 18 20 24 26 27 27 27 27 27 26 24 23 23 22 21 21 20 19 16 15 16 16 16 18 20
9 8 9 9 9 10 10 10 11 12 13 14 15 14 13 13 14 14 12 11 12 14 15 15 15 15 16 17 19 22 23 20 18 19 21 24 26 27 28 29 30 30 31 32 33 34 35 36 35 35 35 35 36 36 38 39 35 30 25 22 17 16 19 23 25 25 24 24 25 24 23 22 21 21 20 20 19 18 16 16 16 16 18 20 22
9 8 8 9 9 10 10 11 11 11 13 16 19 19 17 15 15 15 14 13 14 15 17 18 18 19 22 22 23 25 26 24 23 25 27 28 29 30 30 31 31 31 31 34 36 35 34 32 29 28 30 30 28 29 31 33 32 28 25 22 20 19 20 22 23 24 23 23 23 23 21 21 20 20 20 20 20 19 18 18 18 19 20 22 23
9 9 9 10 10 10 10 11 11 13 14 16 18 20 21 21 19 18 17 17 18 19 21 22 23 24 27 29 29 29 29 29 29 29 30 30 30 30 29 29 30 30 31 35 36 32 30 28 25 24 26 27 27 27 28 29 29 28 25 23 22 22 22 23 23 24 23 23 23 22 21 20 20 20 20 21 20 20 20 19 19 19 20 21 21
10 10 10 11 12 12 12 12 13 15 16 17 17 18 20 23 23 22 21 22 24 25 26 27 27 28 28 30 31 30 29 29 28 28 28 27 27 27 27 28 29 29 31 35 34 29 26 26 24 23 24 25 25 25 26 27 27 26 25 24 22 22 23 24 23 23 23 23 22 21 20 20 20 21 21 21 21 22 21 20 20 20 20 20 20
11 12 12 13 13 14 14 15 16 16 17 18 18 17 18 21 24 24 23 24 26 27 28 28 28 27 26 26 27 27 26 25 25 25 25 25 26 27 28 29 29 29 31 35 33 27 25 25 24 23 24 24 23 23 23 23 23 23 23 23 22 22 23 23 22 22 22 21 20 19 19 18 20 21 21 21 21 21 21 20 20 20 20 20 19
11 13 15 15 16 16 16 16 17 17 18 18 18 17 17 18 20 21 21 22 23 24 26 26 25 25 24 22 22 23 23 22 22 22 23 23 24 25 27 28 28 29 30 31 30 27 25 25 24 23 23 22 21 21 21 21 22 22 22 23 23 23 22 22 21 21 21 19 19 19 18 18 19 20 21 21 20 20 20 19 18 18 18 18 18
13 15 16 16 17 17 17 17 18 18 18 18 17 16 15 16 18 19 20 21 21 20 21 22 22 20 19 18 18 19 19 19 19 19 20 21 21 23 25 27 27 27 27 27 27 26 26 25 24 23 23 23 22 22 22 21 21 21 22 22 22 22 22 21 21 21 20 20 20 19 18 17 17 18 19 19 19 19 18 18 17 16 16 16 15
15 16 16 16 17 17 17 18 18 18 18 17 15 15 15 16 17 18 18 18 19 18 18 17 15 13 13 14 15 16 15 15 15 15 16 17 17 20 24 27 26 25 25 26 26 26 26 26 25 24 23 23 22 21 21 20 20 20 20 20 21 21 21 20 20 20 19 19 19 18 17 17 16 17 17 18 17 17 16 16 16 15 14 14 14
18 18 17 17 17 17 17 17 18 17 17 15 15 15 16 16 16 16 16 15 15 15 14 13 11 11 13 14 14 14 13 13 13 13 13 14 16 19 23 26 26 26 26 25 26 26 26 25 24 23 22 22 21 20 20 19 19 18 19 19 19 19 19 19 19 18 18 17 17 16 16 16 16 15 16 17 17 16 15 14 14 13 13 12 13
19 19 19 18 17 17 17 17 17 16 15 15 15 16 17 16 16 15 15 15 14 14 14 13 13 14 15 14 13 13 13 12 12 13 14 16 18 20 23 24 25 26 26 25 25 25 25 24 22 22 21 20 19 18 18 18 17 17 17 17 18 18 18 17 17 17 17 17 16 15 15 15 14 13 14 15 15 14 13 12 11 10 10 10 11
18 18 18 18 17 17 17 17 17 16 15 16 16 17 17 16 15 15 15 14 14 14 14 14 14 15 14 13 12 12 12 12 13 14 17 18 20 21 22 23 24 24 24 24 24 24 24 23 22 21 20 20 19 17 16 15 15 15 15 16 16 16 16 16 16 16 16 16 16 15 14 14 13 12 12 13 13 12 11 10 9 8 8 8 9
19 19 18 18 17 17 17 17 17 16 16 16 17 17 16 15 15 14 14 14 14 13 13 14 14 13 12 11 10 9 10 12 13 15 17 19 19 20 21 21 22 22 22 22 23 23 22 21 20 20 19 19 18 17 16 14 13 13 12 13 14 14 13 13 14 14 14 14 15 14 14 13 13 12 12 12 11 10 9 9 8 7 7 7 8
19 20 19 17 16 16 16 17 17 17 17 17 17 17 16 15 14 13 13 12 12 12 12 12 12 11 10 9 7 7 8 11 13 15 17 18 18 18 18 19 19 20 21 21 20 20 19 19 18 17 17 17 16 16 15 14 12 11 10 10 10 10 11 11 11 11 12 12 12 13 13 13 12 12 11 11 10 8 7 7 6 5 5 5 6
19 20 19 17 16 16 16 16 17 17 17 17 17 17 16 15 13 12 12 11 11 11 11 10 9 8 6 6 6 6 8 12 15 17 17 17 16 16 16 16 16 17 17 17 17 16 15 15 14 14 14 14 13 13 13 12 11 10 9 8 8 8 8 9 9 9 10 10 11 12 13 12 11 11 10 10 9 8 7 6 6 4 4 4 4
18 20 20 18 17 17 16 16 17 18 18 18 18 17 17 16 14 12 11 10 10 10 10 10 8 6 5 5 6 8 10 13 15 16 16 16 15 14 14 13 14 14 14 14 13 12 11 11 11 11 11 10 10 10 10 9 9 8 7 6 6 7 8 8 8 9 10 10 11 11 12 12 11 10 10 10 10 9 8 7 6 5 5 4 4
17 19 19 19 18 17 16 16 16 17 17 18 18 18 18 17 16 14 12 11 10 10 9 9 9 7 6 6 7 8 11 13 15 15 15 14 13 13 12 12 11 12 12 11 10 10 9 8 8 8 8 8 8 7 7 7 6 6 6 5 3 4 6 7 8 8 9 9 10 11 12 12 10 10 11 11 11 10 9 7 7 7 7 7 7
18 18 19 19 18 17 17 16 16 16 16 17 17 18 18 18 18 16 14 13 12 11 10 10 10 8 7 7 8 9 10 12 14 14 14 13 12 12 12 11 11 11 11 10 10 9 8 7 7 7 8 7 7 6 5 4 4 3 3 3 2 2 5 7 8 9 9 8 8 10 12 12 11 11 12 11 10 9 8 8 8 9 9 9 9
19 19 19 19 18 18 17 17 16 17 17 17 17 17 18 19 19 19 18 16 15 14 13 13 12 10 8 8 9 11 11 12 13 14 13 13 12 12 12 12 11 11 11 10 9 9 9 8 8 8 8 8 8 6 5 3 2 2 1 1 1 1 4 7 9 9 9 8 9 11 13 12 11 11 11 10 9 8 8 9 9 10 10 10 9
20 20 19 19 18 18 17 17 17 17 18 18 18 17 17 18 19 19 19 19 18 16 15 15 15 13 10 9 10 11 12 13 13 14 14 14 14 13 13 13 12 12 11 10 10 10 10 9 9 9 8 8 7 6 4 2 1 2 3 3 4 3 5 8 9 10 10 10 10 11 12 12 11 11 10 10 9 9 9 10 9 9 9 9 9
21 21 20 19 17 16 16 17 18 19 20 20 19 19 18 18 18 18 19 20 20 19 19 18 18 17 15 12 11 11 13 14 15 15 15 15 15 15 14 14 13 13 13 12 11 11 11 10 10 10 9 8 7 6 3 1 3 5 5 5 5 4 5 8 9 11 11 12 11 11 11 10 10 10 10 10 9 9 10 9 9 8 8 8 8
21 22 22 20 18 16 15 16 17 20 21 21 22 21 21 20 19 19 19 20 20 21 21 21 20 20 19 17 15 14 14 15 16 17 17 17 17 17 16 16 15 15 14 14 13 12 12 11 11 10 9 8 7 5 2 3 5 7 6 5 2 3 6 7 8 10 12 13 13 12 11 10 10 10 10 9 8 8 8 8 8 9 8 7 6
21 22 22 21 19 17 15 15 16 18 21 22 23 23 22 21 20 20 20 21 21 22 22 23 23 22 22 21 19 18 17 16 16 17 18 19 19 19 19 18 18 17 16 16 15 14 13 12 11 10 9 8 6 4 2 3 6 8 8 6 2 4 7 8 8 10 12 13 13 12 10 10 10 10 10 9 8 8 8 7 8 10 9 7 5
20 21 21 20 18 16 15 14 14 15 18 20 22 23 22 22 22 21 21 22 22 23 24 24 24 24 24 24 23 22 21 19 17 17 17 19 21 22 22 21 20 20 19 18 17 16 15 14 12 11 9 8 5 3 2 3 4 7 8 6 3 4 7 8 9 11 12 12 12 11 10 9 9 10 10 9 8 8 7 7 8 10 9 6 5
Wind_Direction
254 255 252 247 245 244 243 241 239 237 236 234 233 235 238 242 245 247 247 245 243 240 239 240 244 247 248 250 253 254 253 252 254 258 261 264 266 268 269 271 270 270 272 273 274 280 283 281 280 282 285 288 291 289 287 284 283 282 282 283 282 280 258 230 226 268 295 311 327 330 337 347 347 343 336 330 323 308 270 234 235 251 267 275 284
262 261 257 253 252 250 250 248 243 238 236 234 233 234 236 240 245 248 250 250 249 246 244 242 241 243 244 247 251 252 252 253 256 261 264 266 268 270 270 269 270 270 270 271 273 277 279 278 278 280 282 285 288 288 282 279 280 277 272 275 283 282 260 240 237 253 285 306 320 326 332 339 339 340 343 338 328 318 301 283 276 276 281 282 280
271 266 261 258 256 256 255 254 250 245 240 239 239 239 240 240 242 246 251 255 254 251 248 245 242 241 242 244 248 250 251 252 256 260 265 267 270 272 271 268 267 268 268 269 272 275 276 276 277 280 281 283 285 285 282 279 276 269 265 275 286 282 275 277 270 258 267 290 306 317 325 332 338 341 342 339 332 326 317 309 300 291 285 279 270
272 270 267 263 260 259 261 260 257 253 250 249 248 248 248 246 243 243 246 252 255 255 252 247 246 247 246 246 249 251 253 254 256 260 264 267 270 272 272 268 264 264 265 267 270 273 274 274 277 281 281 282 284 283 281 277 270 262 263 274 281 280 286 294 289 279 281 293 301 314 324 332 337 338 338 337 332 327 323 318 308 291 273 260 256
279 279 273 268 264 262 262 262 261 259 258 256 255 255 255 253 248 244 244 248 251 252 251 248 247 248 249 250 252 254 257 259 260 261 264 266 269 270 268 265 262 260 260 263 266 269 270 272 276 278 278 278 281 282 280 275 265 257 259 267 271 279 291 294 286 283 293 304 312 326 336 337 337 339 339 337 333 326 317 307 295 277 265 259 265
284 293 289 282 277 273 269 265 263 265 266 264 263 262 261 259 256 249 245 248 251 250 249 248 247 248 249 251 253 255 257 260 263 265 266 267 267 267 265 262 260 258 257 259 262 265 268 270 273 274 273 273 276 278 277 269 258 252 254 257 263 276 283 278 271 275 286 299 311 325 333 335 335 337 337 333 329 324 303 296 298 286 277 260 92
287 300 308 308 303 298 292 285 280 275 272 271 271 270 266 261 261 256 246 244 249 251 250 250 252 253 255 256 256 256 256 259 262 265 267 268 267 266 264 261 260 258 256 257 260 263 266 268 270 270 270 271 273 274 272 262 251 247 246 247 254 262 261 254 254 260 268 282 298 310 319 325 327 328 329 326 321 318 303 297 290 209 180 149 113
299 307 313 315 316 317 316 310 306 297 284 275 269 268 268 266 265 262 252 244 245 251 253 255 258 260 261 262 260 259 258 258 260 262 264 267 267 266 264 262 261 259 259 259 261 264 266 267 267 267 268 271 271 273 271 260 247 242 238 236 241 244 244 246 248 249 253 266 281 290 293 295 301 308 313 315 316 313 302 293 249 159 158 159 138
306 311 318 322 319 318 319 317 317 316 303 285 271 269 274 276 274 269 260 252 248 250 254 257 260 261 262 262 262 260 259 259 260 261 263 265 265 265 264 262 261 259 258 260 262 264 266 268 267 265 267 269 268 271 270 258 247 242 237 235 236 235 237 242 247 254 263 269 275 277 270 264 277 292 295 295 303 312 310 301 247 165 153 138 125
314 318 324 332 329 325 325 325 322 315 305 296 288 281 277 276 274 270 266 260 254 252 253 254 255 258 260 262 261 261 260 261 262 263 263 264 264 264 262 261 260 258 256 256 259 261 264 265 263 262 263 263 262 264 263 254 247 242 238 238 238 236 236 241 250 261 269 272 275 278 273 268 278 286 281 277 287 302 304 295 225 169 147 116 101
323 330 329 328 327 328 330 329 323 315 304 301 301 297 287 279 276 272 270 266 261 258 256 254 253 254 258 262 264 265 265 265 266 266 265 265 264 263 262 260 259 257 254 253 254 257 260 260 258 257 257 257 254 252 249 241 236 234 234 236 236 234 233 238 247 257 265 273 277 280 279 280 287 284 267 257 270 283 289 282 211 176 151 119 107
323 329 329 325 322 322 323 322 321 317 310 306 309 310 303 294 287 281 277 272 267 263 261 259 257 256 259 262 264 268 272 273 271 268 266 267 265 263 261 260 258 256 253 252 252 254 256 255 254 253 253 252 247 235 224 222 227 228 224 221 220 226 232 235 243 251 258 265 271 273 274 280 293 289 259 253 274 281 288 284 221 195 157 111 105
317 320 324 324 322 321 318 315 314 313 311 307 305 305 303 298 293 289 286 281 275 269 266 264 263 260 260 262 263 265 269 276 279 274 268 266 266 264 260 258 257 256 254 253 252 251 251 250 249 250 251 248 238 222 214 215 213 203 200 201 204 218 230 236 243 251 256 257 261 267 270 273 281 283 271 275 283 286 295 285 197 180 143 113 113
318 323 325 328 331 328 321 317 315 313 312 310 304 299 294 290 287 284 284 284 280 276 272 269 268 265 264 265 266 266 266 269 276 279 276 270 267 266 263 259 257 256 255 253 252 250 250 247 245 247 247 239 226 216 213 210 199 188 189 194 201 215 229 237 242 246 245 244 251 261 261 263 268 269 267 273 285 295 283 171 151 142 127 122 126
323 329 334 340 340 335 328 325 321 317 315 313 308 300 292 288 285 281 278 277 277 276 274 273 272 271 270 270 270 269 266 264 266 271 277 277 272 268 265 260 256 255 254 253 252 251 251 248 245 245 240 230 221 216 212 206 195 187 187 189 192 197 194 192 197 198 213 216 224 239 241 246 251 236 232 280 358 58 135 136 130 124 120 120 124
332 340 346 346 339 333 329 325 321 318 316 315 312 307 298 291 286 282 278 275 273 272 271 271 272 273 273 273 273 271 268 264 262 262 267 274 276 272 268 262 256 253 254 255 255 254 253 250 246 242 235 226 221 216 211 206 197 189 184 176 171 167 155 151 155 156 170 180 181 191 183 166 145 119 102 99 113 127 130 125 122 122 119 115 116
345 351 346 339 335 333 330 324 318 315 312 310 309 307 303 297 292 286 281 277 273 270 268 267 269 272 272 270 270 273 272 267 264 262 262 266 272 274 274 269 259 253 252 255 257 256 253 250 246 240 232 224 217 212 211 206 197 188 177 163 157 151 142 138 135 131 131 126 124 123 115 109 110 109 113 127 136 139 133 126 127 126 120 113 108
3 352 340 335 337 337 331 324 320 316 311 307 304 300 298 296 294 288 281 277 274 271 268 266 265 265 264 265 267 272 274 270 266 265 264 264 266 271 277 276 263 254 251 253 254 253 252 252 248 239 231 223 214 210 209 202 194 186 174 161 153 144 139 141 136 128 122 119 117 113 108 113 119 122 132 139 142 145 139 135 139 134 123 116 116
5 348 335 329 329 329 325 324 326 325 319 313 307 302 296 291 289 285 279 276 276 272 267 263 260 254 253 260 266 270 273 272 269 268 267 267 268 269 271 269 260 254 251 250 249 250 252 252 248 241 234 225 215 210 207 201 193 184 173 162 152 145 145 144 137 131 128 124 123 118 115 121 128 132 139 143 145 150 146 141 145 139 128 124 126
355 338 331 327 323 324 327 328 328 331 330 323 316 311 302 293 290 286 277 271 269 268 264 256 251 247 249 256 262 265 269 271 270 269 269 270 271 270 266 261 258 255 252 248 247 250 253 252 247 241 235 228 221 214 205 198 189 179 173 168 158 149 147 142 135 132 128 122 119 117 114 115 119 124 128 130 129 135 138 138 142 140 134 134 137
338 334 339 333 324 329 337 335 331 334 338 334 326 322 314 303 297 292 281 268 259 256 254 244 233 234 241 246 250 255 263 268 270 270 272 272 269 264 261 260 260 259 251 244 243 248 254 254 248 241 234 227 221 211 200 195 188 179 176 173 162 150 144 137 131 127 121 116 113 111 109 108 108 108 108 107 106 109 115 119 123 128 133 137 139
334 345 348 341 340 349 350 346 347 349 350 347 342 340 336 324 314 308 291 269 247 235 231 219 208 210 221 234 249 263 271 278 283 284 284 280 270 261 257 256 258 257 248 241 241 245 248 248 244 238 231 225 219 209 199 192 186 180 174 162 150 145 140 133 127 121 114 111 108 106 104 103 102 101 100 100 100 101 103 105 107 110 114 119 125
336 346 353 355 4 7 356 358 9 9 5 7 8 6 7 5 4 9 14 56 136 143 153 163 160 147 99 50 5 329 313 307 304 302 298 291 281 274 268 257 253 251 244 240 242 244 243 241 238 231 222 214 210 206 199 190 180 172 164 152 144 142 136 128 122 116 110 107 105 102 100 101 101 100 100 100 100 99 99 98 99 101 100 98 101
349 9 18 16 17 16 10 19 32 30 27 32 36 36 38 39 43 51 60 73 82 80 77 84 88 78 61 49 38 23 6 352 341 329 317 306 297 292 283 262 246 241 235 232 235 237 240 247 247 232 209 196 191 195 198 189 174 162 154 148 143 139 131 124 120 116 111 108 105 103 103 105 105 104 104 104 102 101 99 97 95 94 95 95 95
60 54 44 40 44 44 40 44 48 48 48 49 48 50 53 54 56 63 69 75 78 76 73 73 72 69 64 59 55 53 50 44 39 32 16 358 347 332 299 256 230 221 210 185 153 136 107 91 108 154 172 173 161 127 100 154 154 148 146 144 140 135 128 124 123 121 116 113 113 112 112 112 111 109 109 108 105 103 101 99 98 96 96 98 99
95 78 69 70 73 67 61 60 59 58 59 60 59 59 61 63 64 65 68 74 78 77 76 76 75 73 72 68 67 68 69 71 72 72 71 67 64 65 73 97 135 140 114 92 89 96 96 92 94 95 98 112 119 107 87 66 64 82 103 119 127 129 128 127 129 127 123 122 123 122 121 119 117 116 114 110 106 104 101 99 100 100 102 105 104
97 86 80 77 76 73 66 64 66 67 67 71 73 71 69 70 70 68 67 72 77 78 79 80 81 82 81 78 76 76 78 80 82 84 88 90 90 93 96 99 103 105 103 100 101 103 103 100 98 95 92 90 94 99 100 89 72 65 66 71 89 111 122 127 130 130 130 131 130 128 127 126 124 121 118 112 108 107 104 100 101 103 106 110 107
101 92 82 76 73 72 69 68 74 77 75 77 79 76 73 73 72 70 71 77 82 86 89 90 90 92 90 88 86 83 80 80 82 86 91 93 94 97 99 100 101 103 103 105 107 107 107 106 103 100 99 100 98 97 99 101 100 99 98 91 85 98 114 122 125 127 131 134 133 132 132 132 128 125 121 114 110 109 106 102 103 108 113 114 107
104 91 82 77 75 75 75 76 78 79 77 76 74 72 72 75 76 76 79 87 96 101 103 102 102 102 98 94 92 88 83 80 84 92 96 97 97 98 98 98 100 102 103 105 105 102 100 98 99 99 100 100 101 103 104 105 107 110 115 117 117 118 120 121 122 124 128 134 136 136 136 132 128 126 122 114 111 110 107 105 108 112 115 113 107
104 89 82 80 82 85 85 83 83 83 81 81 80 79 77 77 79 82 86 93 101 105 106 106 107 107 102 97 96 96 94 95 98 99 98 98 99 98 98 99 101 101 103 104 101 96 93 90 91 97 102 102 101 102 105 110 115 119 123 128 133 131 126 123 123 124 128 133 137 139 138 133 128 125 122 117 114 111 107 107 110 112 112 110 106
106 93 89 88 91 94 91 89 92 92 90 90 89 88 85 83 83 87 94 99 101 101 102 103 103 102 101 101 102 103 104 104 104 102 101 100 101 100 99 100 101 101 102 101 96 90 91 91 88 90 96 100 101 104 108 113 118 123 127 132 134 134 132 129 128 128 129 130 133 135 135 132 128 126 124 121 117 114 110 108 108 109 110 110 108
118 108 105 102 102 102 100 100 102 98 95 95 93 92 92 91 88 89 95 101 102 101 101 101 100 100 102 105 107 106 106 106 105 104 103 103 103 103 102 101 100 99 100 98 93 87 88 90 89 88 91 94 99 106 112 117 122 127 131 132 134 135 133 131 131 131 128 127 127 128 128 129 128 127 126 124 121 118 115 113 112 111 111 110 109
133 127 125 118 113 113 113 111 108 104 102 101 99 97 97 98 97 96 97 100 103 104 103 101 99 98 99 102 105 105 106 107 106 105 105 105 105 105 104 103 102 102 99 96 93 91 91 92 91 91 92 95 101 107 112 118 123 128 130 130 131 132 132 132 132 129 125 123 123 123 124 128 130 129 128 127 125 123 120 118 118 117 116 113 111
145 142 137 130 124 123 122 119 114 111 109 107 105 102 100 102 104 104 103 102 101 102 103 102 99 97 95 96 101 103 104 104 105 107 109 109 109 109 108 106 104 103 101 99 98 98 98 98 98 99 101 103 107 112 114 118 123 125 126 128 129 130 131 132 130 126 123 121 120 120 123 127 131 131 129 128 127 126 124 123 123 121 119 117 115
145 144 140 134 130 129 128 125 122 120 116 113 111 108 106 108 108 107 106 105 102 102 105 106 103 97 92 95 103 107 105 103 105 109 109 110 113 115 111 105 101 99 99 101 103 104 105 104 104 106 108 110 111 113 114 116 119 122 124 126 129 131 132 130 127 124 122 120 117 117 120 124 128 131 130 129 128 127 126 126 126 124 122 122 120
145 145 144 140 137 135 134 132 129 127 124 121 120 118 116 114 111 108 108 109 109 108 110 111 107 96 88 95 108 114 110 104 104 107 110 114 118 117 111 106 104 103 103 105 107 108 109 109 110 110 111 110 110 110 111 113 116 120 123 127 130 131 129 127 125 123 120 118 116 116 118 120 125 128 129 128 128 128 128 128 127 125 126 127 126
152 151 150 147 144 141 141 139 136 134 132 130 129 126 121 116 113 113 113 113 114 115 115 115 112 102 96 102 114 118 114 109 106 107 112 119 119 114 112 112 113 111 109 111 112 112 111 111 111 110 110 109 108 107 108 111 115 119 121 123 125 125 124 124 124 122 120 119 119 119 119 119 120 123 123 122 122 123 124 127 127 127 129 131 131
160 158 156 154 152 150 148 145 143 140 138 137 135 130 123 117 115 114 114 114 115 116 117 117 115 110 107 111 118 123 121 117 113 113 116 119 117 115 116 117 117 116 115 115 115 114 113 112 111 108 106 105 105 105 107 109 112 116 118 119 119 119 120 121 122 122 124 125 126 125 122 119 117 115 114 114 115 114 114 117 121 126 131 136 137
162 161 161 159 157 156 156 154 151 148 145 142 139 134 128 123 121 120 120 120 118 117 118 119 117 116 117 120 125 130 128 123 119 119 120 119 118 119 119 119 119 118 119 118 117 115 113 110 108 106 104 102 101 101 103 106 110 114 117 119 119 119 119 121 124 127 129 130 130 128 124 120 118 115 112 110 108 107 106 106 108 115 125 133 138
165 164 165 164 162 162 163 162 159 156 152 149 147 142 136 131 129 128 129 128 126 126 127 126 124 125 129 133 137 140 136 129 127 128 126 124 123 122 122 121 121 121 121 120 118 115 113 111 109 107 105 102 100 99 99 102 107 113 118 121 122 122 123 125 128 130 131 131 131 129 127 125 124 120 114 109 104 99 96 94 93 100 112 123 133
169 168 169 170 169 168 168 169 169 166 161 158 156 153 147 142 138 136 136 136 136 137 137 135 135 136 141 146 154 158 148 139 138 137 134 130 129 128 126 125 125 124 124 122 120 116 115 114 113 111 109 107 104 101 99 99 101 107 116 124 126 125 127 128 130 131 133 135 135 133 133 134 131 124 119 115 109 102 98 93 86 87 100 116 135
172 173 174 175 176 175 175 176 176 174 170 167 166 164 162 157 152 147 144 141 142 146 146 143 140 140 141 147 155 155 146 142 143 142 138 135 135 134 132 132 131 128 125 123 120 118 118 118 117 115 114 112 109 105 101 98 96 98 105 119 131 135 136 137 137 137 139 143 145 143 142 142 137 128 125 125 121 116 112 105 95 90 99 112 133
179 179 180 181 183 185 185 182 180 180 181 179 177 174 174 174 171 166 158 151 150 154 155 150 143 135 126 130 139 141 140 142 144 144 142 141 140 139 138 138 136 134 131 128 125 122 122 124 126 123 118 114 111 105 97 92 90 91 94 106 129 144 147 148 150 152 152 152 154 153 151 148 143 137 136 136 132 127 122 114 103 98 99 104 115
184 184 185 187 189 192 192 189 186 186 187 188 187 185 185 186 185 184 180 173 166 166 168 164 157 148 141 141 146 146 146 147 149 149 148 148 148 147 146 146 145 144 142 140 139 139 137 136 139 138 133 127 123 116 104 91 83 80 78 78 108 161 168 163 160 160 158 157 161 164 160 155 152 150 147 144 139 133 126 116 105 100 102 105 108
190 189 190 191 194 197 199 198 197 195 193 193 194 194 195 196 196 195 196 192 184 180 182 181 175 170 168 167 167 163 159 158 160 160 160 160 159 159 157 156 157 158 156 156 158 160 158 157 158 159 157 152 148 142 132 113 96 85 72 59 64 174 188 181 172 168 165 165 172 176 171 165 162 157 152 147 142 133 125 118 111 105 105 105 103
195 195 195 196 198 203 205 205 205 204 202 201 201 201 203 204 204 203 205 205 199 193 192 192 192 191 187 184 183 182 178 175 174 175 175 175 173 172 173 172 171 172 172 173 174 176 177 178 177 175 174 173 170 166 163 152 128 95 48 14 356 210 195 189 183 180 179 179 180 181 178 171 165 160 154 149 144 137 129 126 119 110 105 103 100
198 198 199 200 201 205 209 210 211 212 211 210 210 209 210 212 211 209 210 211 209 205 201 200 201 204 203 199 198 196 195 193 191 189 189 189 187 186 186 187 187 187 187 187 188 188 187 187 185 183 182 180 178 177 179 174 74 4 337 305 284 248 201 189 186 186 188 187 183 181 178 171 166 166 163 157 152 146 142 139 130 118 110 105 98
200 199 198 197 198 204 210 213 215 217 217 217 217 217 216 217 217 216 215 215 214 213 210 208 208 211 213 213 212 209 207 207 206 204 202 201 200 200 199 199 201 200 197 196 197 197 194 192 190 188 186 183 181 182 179 126 12 355 335 306 275 236 200 189 188 187 188 188 184 180 178 173 170 171 169 163 158 154 152 151 148 138 125 111 97
199 199 198 199 202 209 216 220 223 225 225 224 222 221 219 219 221 222 223 222 220 218 217 214 213 215 219 221 223 223 220 216 215 215 214 212 210 210 210 209 209 208 206 205 206 204 200 196 193 190 187 183 179 175 150 46 24 14 4 346 295 199 183 186 189 188 188 188 185 182 179 174 170 170 170 168 166 164 162 163 164 157 144 125 107
200 200 201 202 204 210 217 225 231 233 232 229 225 221 220 222 223 225 226 226 226 225 223 221 220 220 221 223 226 228 229 228 225 225 224 221 218 217 216 216 215 214 213 213 213 210 205 199 195 190 187 182 176 164 115 58 46 40 34 26 43 161 169 178 185 187 188 188 185 182 178 172 170 172 174 175 177 177 173 172 174 171 162 146 131
201 202 203 205 208 213 221 229 234 234 231 229 226 224 224 227 229 230 230 230 230 230 229 227 226 225 224 225 227 230 234 237 236 233 232 229 226 222 221 220 219 218 217 217 217 214 208 201 197 193 188 183 179 170 135 89 58 44 37 32 50 153 168 175 180 183 185 186 185 183 181 177 176 179 181 183 188 189 180 173 175 177 171 159 151